Temperature
20 17 17 18 18 19 19 19 19 19 20 20 20 20 21 21 21 21 21 21 21 21 21 21 20 20 19 19 18 18 17 17 16 15 15 14 14 14 14 13 13 13 13 13
18 18 19 20 20 20 19 19 19 20 21 21 20 20 20 20 21 22 22 21 21 21 21 20 20 20 19 19 18 18 17 17 16 15 15 14 14 14 13 13 13 13 13 13
19 20 21 21 20 20 20 19 20 20 20 21 21 20 20 21 21 22 22 22 22 21 21 20 20 20 19 19 18 18 17 17 16 15 15 14 14 14 13 13 13 13 13 13
20 21 21 21 21 21 20 21 21 21 19 19 20 19 19 20 20 20 21 22 22 21 21 21 20 20 19 19 18 18 17 17 16 15 15 14 14 14 13 13 13 13 13 13
20 21 21 21 22 22 21 22 21 21 20 19 19 19 19 20 20 20 20 21 22 22 21 21 21 20 20 19 18 18 17 17 16 15 15 14 14 14 13 13 13 13 13 13
21 22 22 22 23 23 22 21 20 18 17 19 20 19 20 19 20 21 21 21 22 22 21 21 21 20 19 19 18 18 17 17 16 15 15 14 14 14 13 13 13 13 13 13
21 22 23 23 22 22 21 18 17 18 17 18 19 20 19 20 21 21 21 22 22 22 22 21 20 20 19 19 18 18 17 17 16 15 15 14 14 14 13 13 13 13 13 13
20 20 22 23 22 22 21 19 18 18 18 18 19 20 20 21 22 23 23 23 22 22 22 21 21 20 20 19 18 18 17 17 16 15 15 14 14 14 14 13 13 13 13 13
20 21 23 24 24 23 22 19 18 17 18 18 18 20 21 22 21 21 22 22 22 22 22 22 21 21 20 19 19 18 18 17 16 15 15 14 14 14 14 13 13 13 13 13
21 21 23 24 24 23 22 20 17 18 18 18 18 19 19 21 21 21 20 21 22 22 22 22 21 21 20 20 19 18 18 17 16 15 15 14 14 14 14 13 13 13 13 13
21 20 22 22 23 22 22 21 18 16 16 17 18 18 20 20 21 20 20 22 23 23 22 22 22 21 20 20 19 18 17 17 16 16 15 14 14 14 14 13 13 13 13 13
20 18 19 21 22 23 22 22 19 18 18 16 16 18 20 20 21 21 22 23 23 23 23 22 22 21 20 19 19 18 17 17 16 16 15 15 14 14 14 14 13 13 13 13
20 18 18 19 20 21 22 22 20 17 16 16 17 19 20 20 21 22 22 23 23 23 22 22 21 21 20 20 19 18 18 17 16 16 15 15 14 14 14 14 13 13 13 13
20 18 18 19 20 20 21 22 21 19 17 18 18 19 20 20 20 20 22 22 22 22 22 22 21 21 20 20 19 19 18 17 16 16 15 15 15 14 14 14 13 13 13 13
19 19 20 20 20 21 21 21 21 20 19 18 19 19 19 19 19 20 21 21 21 21 21 21 21 21 20 20 19 19 18 17 17 16 16 15 15 14 14 14 14 13 13 13
17 19 19 19 21 20 20 21 21 21 20 19 19 19 19 20 20 20 20 20 20 20 21 21 21 20 20 20 19 19 18 18 17 16 16 16 15 15 14 14 14 14 13 13
17 18 18 17 18 20 19 20 20 19 19 19 18 19 19 19 19 19 19 19 20 20 20 20 20 20 20 20 20 19 19 18 17 17 16 16 15 15 15 14 14 14 14 14
17 17 15 16 18 19 19 19 20 19 18 18 18 18 18 19 20 20 19 19 19 20 20 20 20 20 20 20 20 19 19 18 18 17 17 16 16 15 15 15 14 14 14 14
16 17 16 15 17 18 19 19 19 19 17 17 17 17 18 19 19 19 19 19 19 20 20 20 20 20 20 20 20 19 19 18 18 17 17 17 16 16 15 15 15 14 14 14
16 15 15 15 17 17 17 18 19 18 16 16 16 16 17 17 15 16 18 19 19 19 19 20 20 20 20 20 19 19 19 18 18 18 18 17 16 16 16 15 15 15 14 14
16 15 15 15 16 16 16 17 18 16 15 16 16 16 16 15 15 17 18 18 18 18 19 19 19 19 19 19 19 18 18 18 18 18 18 17 17 16 16 16 15 15 14 14
15 15 14 13 14 15 16 16 15 14 15 15 16 16 16 16 16 16 17 17 17 17 18 18 18 18 18 19 18 18 18 18 18 18 17 17 17 16 16 16 15 15 14 14
14 14 13 13 14 14 15 15 15 15 15 15 15 15 15 15 15 15 15 16 16 16 16 16 17 17 17 18 18 18 18 18 17 17 17 17 17 16 16 16 15 15 15 14
13 13 13 13 13 14 14 14 14 14 14 14 14 14 14 14 14 14 14 14 15 15 15 15 15 16 16 16 17 17 17 17 17 17 17 17 16 16 16 16 15 15 15 14
12 13 12 11 12 13 13 13 13 13 13 13 13 13 13 13 13 13 13 13 13 14 14 14 14 14 15 15 16 16 16 16 16 16 16 16 16 16 16 16 16 15 15 15
11 12 11 11 12 11 12 12 12 12 12 12 12 12 12 12 12 12 12 12 12 13 13 13 13 13 14 14 15 15 15 15 15 16 16 16 16 16 16 15 15 15 15 15
Wind_Speed
4 5 4 7 6 6 3 2 2 4 4 3 7 10 10 7 7 9 10 10 10 11 9 11 11 11 10 8 8 7 7 5 4 2 2 1 1 1 1 2 1 1 1 2
5 2 6 7 6 5 4 2 2 5 4 5 7 10 10 8 10 11 12 12 12 10 8 9 9 10 10 9 8 8 8 6 5 3 2 2 2 1 2 2 2 1 1 2
5 5 6 6 6 5 3 4 5 4 4 3 2 7 5 4 6 7 9 10 12 15 14 12 10 10 9 10 10 9 8 7 6 4 2 2 2 2 2 2 2 2 2 2
2 3 6 6 6 6 3 6 5 3 1 4 1 3 8 4 3 6 8 9 11 12 12 12 11 10 10 10 9 9 8 7 6 5 4 3 2 1 2 2 2 3 3 2
3 4 6 5 5 6 6 4 3 2 1 3 2 2 7 2 4 7 8 8 11 12 13 13 13 12 10 9 9 8 8 7 6 5 5 4 2 2 2 2 2 2 3 3
2 3 5 5 3 5 2 3 5 4 4 3 3 2 5 4 7 7 6 7 9 11 12 12 10 9 8 8 8 8 8 7 6 5 5 5 4 3 1 1 1 2 2 3
3 2 2 3 1 2 5 6 5 6 5 5 4 1 6 7 5 7 8 8 9 10 11 11 11 10 10 10 9 8 9 7 6 5 4 5 5 4 3 2 2 1 1 2
2 3 3 2 4 3 2 7 6 2 3 5 5 2 6 5 1 3 6 7 8 9 10 12 13 12 11 11 10 9 9 7 6 6 5 4 4 3 2 2 2 2 2 3
3 3 3 2 3 6 3 2 6 6 0 2 5 5 6 3 2 2 5 7 9 10 11 12 12 12 12 11 11 11 10 8 7 7 5 4 4 3 3 2 2 2 2 2
5 1 2 1 4 3 5 6 6 4 2 2 6 4 4 6 5 5 6 8 9 9 10 10 11 12 12 11 10 10 10 9 7 7 6 5 4 4 3 2 1 1 2 1
4 4 3 2 1 3 1 3 5 4 5 4 2 6 6 8 8 8 10 10 10 11 11 11 11 11 10 9 9 9 9 8 7 7 6 5 4 4 3 2 2 2 1 1
3 5 1 4 6 3 5 5 6 4 2 4 3 7 8 6 7 8 9 8 8 9 10 10 10 10 9 10 9 10 9 9 8 8 6 6 5 4 4 3 3 2 1 1
4 5 4 7 8 6 3 1 4 5 4 3 3 7 6 5 6 6 6 6 5 6 7 7 8 10 11 11 10 10 10 10 8 8 7 6 5 5 4 4 3 2 1 1
4 4 5 5 6 4 4 4 1 4 3 4 6 8 9 8 7 6 4 3 3 4 5 7 8 10 10 11 11 11 10 10 9 8 8 7 7 6 6 4 4 3 2 2
5 2 2 5 5 2 3 5 4 3 6 6 6 5 7 7 5 3 2 1 1 1 2 5 8 9 9 10 10 10 10 10 10 9 9 9 8 6 6 5 4 3 3 3
4 2 3 5 5 5 5 5 4 3 2 3 1 3 6 5 3 5 5 3 2 2 3 5 6 7 9 11 11 11 11 11 10 11 11 9 8 7 6 6 5 4 3 3
3 2 2 4 7 5 5 4 1 3 3 1 1 4 5 5 6 5 5 5 4 4 4 4 6 8 9 10 11 13 13 11 11 11 10 9 9 8 8 7 6 5 5 3
3 2 2 1 4 2 5 3 3 6 7 6 3 5 5 3 0 3 5 5 6 6 5 5 5 6 7 8 9 10 10 11 12 11 11 10 10 9 8 7 7 6 5 4
7 5 3 2 1 4 5 5 3 1 4 8 6 8 10 7 4 6 8 7 6 6 6 6 5 5 5 6 7 8 10 11 12 12 12 12 12 11 9 9 8 6 5 5
4 4 4 3 2 3 5 10 6 5 3 9 8 8 9 8 6 7 11 10 9 9 7 6 5 3 3 4 5 7 10 11 13 14 14 13 12 12 12 11 9 6 6 6
4 4 2 2 3 4 5 9 6 4 4 7 7 7 6 3 4 8 10 10 9 8 8 7 6 4 5 3 3 7 8 12 13 12 11 11 12 13 12 10 7 6 6 6
1 0 0 1 2 4 8 6 4 2 3 4 5 6 6 6 8 9 10 10 11 11 9 8 7 7 6 3 3 6 9 10 8 8 10 12 12 12 10 9 8 7 8 7
1 2 3 4 4 1 3 3 2 1 2 4 5 6 6 7 8 9 9 9 9 9 9 8 7 8 7 5 4 8 9 7 6 7 10 11 12 11 10 11 10 7 7 7
4 2 2 1 2 2 3 4 4 3 3 4 4 5 6 6 8 9 9 10 10 9 9 8 9 9 9 8 7 8 7 6 6 8 9 9 10 10 9 9 9 9 9 8
5 2 1 2 4 3 3 4 4 5 5 5 6 6 6 6 7 7 8 9 10 10 9 8 8 9 11 10 9 8 6 5 7 8 8 8 9 10 9 8 7 9 9 10
4 4 4 5 5 3 5 5 4 4 6 7 7 7 7 6 7 7 8 8 9 10 9 10 10 10 11 11 11 9 7 6 8 7 7 7 7 7 8 8 4 2 4 9
Wind_Direction
114 95 149 186 174 160 159 148 267 265 253 224 248 260 257 233 211 196 193 192 187 188 176 165 159 154 148 150 147 148 147 153 134 112 111 95 314 300 304 289 297 330 334 342
78 156 196 170 161 163 172 158 274 284 255 217 253 266 264 230 213 201 193 192 189 181 164 166 161 159 159 161 158 155 156 157 153 155 172 188 201 244 258 290 322 331 324 332
139 198 185 170 173 175 198 203 214 244 319 310 289 314 300 261 209 201 194 187 184 179 176 173 169 171 166 167 168 163 163 160 161 153 124 74 49 22 359 331 316 306 295 304
155 209 178 182 189 178 217 231 219 228 336 291 150 289 298 289 195 196 194 180 183 181 176 175 174 176 176 176 170 159 160 161 162 151 140 139 151 203 244 252 271 293 293 288
211 187 164 184 205 181 214 229 234 247 196 318 319 158 294 320 200 217 210 191 185 183 180 181 182 181 177 171 165 160 155 159 164 160 154 151 165 211 252 272 296 307 306 302
202 180 167 194 213 190 177 45 29 38 66 333 267 158 271 245 219 216 213 196 185 182 183 184 180 169 167 163 157 154 156 166 171 162 159 164 174 188 214 289 306 308 304 305
2 330 226 156 69 359 78 74 31 13 11 274 294 160 256 265 233 198 191 193 185 179 175 175 172 172 170 167 163 160 161 172 178 167 173 178 179 183 196 229 234 249 279 286
109 302 258 179 165 169 140 130 142 171 252 293 345 331 282 298 274 155 162 168 170 177 180 181 181 178 176 173 168 165 168 174 176 175 184 185 181 181 207 215 209 226 240 254
147 263 283 198 157 132 115 137 164 138 97 341 329 324 325 353 36 133 155 160 179 186 188 188 185 181 179 177 178 175 173 174 178 179 178 184 185 187 200 208 207 227 250 261
141 138 307 317 53 33 143 141 88 91 99 343 324 307 257 252 242 234 215 206 205 200 194 191 188 187 186 184 182 176 172 176 179 179 181 185 190 193 191 181 197 225 260 283
98 116 334 17 182 211 104 89 102 109 142 144 299 285 240 229 228 225 230 225 215 207 199 194 193 191 185 181 177 177 177 175 177 181 182 177 188 192 184 186 217 227 254 278
63 110 38 283 283 212 164 171 143 140 230 166 177 270 277 250 243 230 235 238 228 214 204 197 191 184 182 184 184 182 182 182 185 183 178 183 188 182 181 201 228 224 225 256
72 90 50 351 346 357 0 261 151 136 125 154 175 267 294 308 288 267 248 248 240 222 207 198 190 189 191 191 189 188 187 189 186 179 177 179 184 185 193 206 217 208 198 215
92 98 150 191 236 261 290 294 232 133 164 220 225 254 299 310 301 302 285 259 235 214 202 198 202 203 200 197 193 191 193 189 183 179 180 185 192 196 199 200 199 198 187 175
73 84 254 243 257 267 280 290 278 221 205 204 242 252 287 293 287 300 316 344 26 248 223 213 214 214 209 204 201 197 195 191 184 180 187 197 198 196 194 194 197 197 193 192
44 65 9 330 321 338 328 315 301 282 255 222 260 305 298 309 4 24 17 17 353 283 257 238 230 221 215 212 207 200 198 194 185 186 195 197 190 189 193 197 196 195 202 199
352 77 41 302 315 8 341 315 27 37 6 93 90 286 319 17 39 36 20 7 328 290 275 254 239 231 226 219 209 204 202 190 187 193 196 193 189 191 198 199 191 197 202 195
200 122 136 282 7 290 247 294 98 87 41 32 30 350 355 341 254 48 24 3 337 318 299 281 264 253 241 224 214 206 192 187 192 196 197 194 191 195 195 192 197 201 197 198
181 161 148 142 225 284 313 334 326 147 37 5 10 4 356 343 10 0 354 344 326 311 294 275 257 248 250 234 215 198 194 193 195 200 201 198 193 193 193 197 203 200 192 200
78 108 127 137 170 234 291 319 326 96 40 348 5 6 0 19 15 321 327 332 330 328 321 312 299 280 281 262 212 193 201 198 205 207 205 200 194 193 196 201 201 195 192 199
17 33 112 177 215 248 309 323 23 76 285 326 354 2 9 8 273 289 319 335 336 331 326 329 324 298 274 267 206 207 208 212 215 211 203 197 196 197 198 195 192 188 189 188
227 105 324 129 202 264 337 21 58 244 288 334 352 355 352 332 327 332 336 337 340 341 338 337 330 312 298 274 218 226 228 229 220 204 200 199 198 197 195 187 188 183 179 182
179 184 195 191 208 259 14 66 19 13 347 339 343 340 344 338 333 333 333 332 332 333 332 329 320 314 313 293 246 239 245 235 217 205 205 203 197 196 187 185 186 181 181 186
304 5 91 345 270 340 29 37 20 16 357 332 333 333 342 336 332 333 335 335 331 329 327 327 325 319 313 302 282 262 258 227 209 212 209 202 195 193 189 187 186 186 189 191
262 323 345 274 282 323 358 360 346 344 345 341 338 337 337 336 330 327 326 328 326 322 320 320 318 310 308 306 295 288 274 232 217 216 212 204 198 192 189 187 191 193 198 195
227 206 204 235 239 227 271 297 317 337 340 339 339 341 339 335 325 324 320 318 320 319 318 317 313 309 307 307 300 295 279 240 223 221 215 207 198 191 184 175 165 154 191 199
Height
1487 1494 1500 1498 1497 1499 1501 1505 1507 1501 1493 1495 1495 1492 1486 1484 1486 1487 1489 1490 1492 1494 1496 1499 1500 1502 1503 1504 1504 1505 1504 1504 1504 1503 1502 1501 1501 1499 1498 1497 1496 1494 1493 1491
1492 1497 1492 1491 1494 1497 1501 1505 1505 1498 1492 1494 1494 1491 1483 1481 1482 1482 1484 1487 1489 1492 1495 1497 1499 1500 1501 1502 1503 1503 1503 1503 1502 1502 1501 1501 1500 1498 1497 1496 1495 1493 1492 1490
1493 1492 1489 1492 1495 1498 1500 1502 1501 1500 1494 1492 1494 1494 1485 1479 1479 1481 1482 1483 1486 1488 1491 1494 1496 1498 1499 1500 1501 1501 1501 1501 1501 1501 1500 1500 1499 1498 1497 1495 1494 1492 1491 1489
1490 1487 1488 1491 1493 1494 1501 1492 1492 1495 1502 1506 1498 1511 1492 1483 1481 1480 1480 1481 1483 1486 1489 1491 1493 1495 1497 1498 1499 1499 1500 1500 1500 1499 1499 1498 1498 1497 1496 1494 1493 1492 1490 1489
1490 1486 1488 1491 1489 1488 1491 1486 1490 1493 1500 1506 1501 1508 1500 1486 1484 1481 1479 1479 1481 1483 1486 1489 1491 1493 1495 1496 1497 1498 1498 1498 1498 1498 1498 1497 1497 1496 1495 1494 1492 1491 1489 1488
1485 1483 1484 1485 1483 1483 1485 1490 1494 1501 1507 1516 1502 1507 1504 1491 1482 1478 1478 1479 1480 1482 1485 1487 1489 1492 1493 1495 1495 1496 1496 1497 1497 1497 1496 1496 1496 1495 1494 1493 1491 1490 1489 1487
1489 1485 1482 1482 1486 1486 1489 1505 1521 1523 1527 1520 1501 1503 1500 1482 1476 1475 1475 1477 1479 1481 1483 1485 1487 1489 1491 1492 1493 1494 1494 1495 1495 1495 1495 1495 1494 1494 1493 1492 1491 1490 1488 1487
1500 1500 1484 1481 1484 1489 1492 1502 1521 1529 1529 1521 1505 1505 1494 1478 1474 1474 1474 1476 1478 1479 1481 1483 1484 1486 1488 1489 1491 1492 1492 1493 1493 1493 1494 1494 1493 1493 1492 1491 1490 1489 1488 1487
1499 1498 1481 1478 1479 1483 1492 1499 1501 1515 1517 1523 1515 1501 1488 1478 1477 1476 1476 1477 1477 1478 1479 1480 1482 1484 1485 1487 1488 1489 1490 1491 1491 1492 1492 1492 1492 1492 1491 1491 1490 1489 1488 1486
1487 1494 1485 1479 1479 1481 1485 1492 1507 1515 1525 1531 1521 1510 1503 1486 1482 1478 1477 1476 1476 1476 1477 1478 1480 1481 1483 1484 1486 1487 1488 1489 1489 1490 1490 1491 1491 1491 1490 1490 1489 1488 1487 1486
1483 1495 1493 1486 1487 1489 1489 1493 1504 1516 1520 1530 1530 1518 1487 1482 1478 1477 1475 1474 1473 1474 1474 1475 1477 1479 1480 1482 1483 1485 1486 1487 1487 1488 1489 1489 1489 1489 1489 1489 1489 1488 1487 1486
1485 1497 1502 1494 1484 1480 1484 1489 1499 1514 1516 1520 1526 1516 1478 1477 1474 1473 1472 1471 1471 1471 1472 1473 1474 1476 1478 1479 1480 1482 1483 1484 1485 1486 1486 1487 1488 1488 1488 1488 1488 1487 1487 1486
1486 1498 1512 1510 1501 1489 1487 1486 1491 1501 1511 1519 1523 1510 1477 1475 1474 1472 1471 1470 1469 1470 1470 1471 1472 1473 1474 1476 1477 1478 1480 1481 1482 1483 1484 1485 1485 1486 1486 1486 1487 1486 1486 1485
1485 1498 1508 1513 1507 1496 1493 1488 1487 1497 1510 1512 1507 1498 1483 1478 1475 1472 1470 1469 1468 1468 1468 1469 1469 1470 1472 1473 1474 1475 1476 1478 1479 1480 1481 1482 1483 1484 1485 1485 1485 1485 1485 1485
1488 1498 1496 1495 1491 1489 1489 1488 1486 1490 1495 1502 1496 1491 1484 1478 1475 1472 1470 1468 1467 1467 1467 1467 1467 1468 1469 1470 1471 1472 1473 1475 1476 1477 1478 1479 1481 1482 1483 1483 1484 1484 1484 1484
1491 1496 1496 1496 1489 1489 1490 1486 1485 1485 1486 1489 1488 1488 1479 1476 1473 1471 1470 1469 1468 1467 1466 1466 1466 1466 1466 1467 1467 1468 1470 1471 1473 1474 1475 1477 1478 1479 1480 1481 1482 1482 1482 1482
1496 1498 1503 1506 1497 1493 1499 1489 1487 1488 1487 1487 1492 1488 1479 1476 1474 1474 1472 1470 1469 1467 1466 1465 1464 1463 1463 1463 1463 1464 1466 1467 1469 1470 1472 1473 1475 1476 1477 1478 1479 1480 1480 1480
1495 1500 1507 1509 1504 1508 1499 1484 1484 1487 1489 1487 1486 1483 1480 1477 1475 1473 1472 1470 1468 1466 1464 1463 1461 1461 1460 1460 1460 1461 1462 1464 1465 1466 1468 1470 1471 1473 1474 1475 1476 1477 1478 1478
1488 1496 1506 1512 1510 1505 1493 1485 1484 1486 1492 1489 1487 1483 1480 1476 1473 1472 1472 1470 1469 1466 1463 1462 1460 1459 1458 1457 1457 1457 1458 1459 1461 1462 1463 1465 1467 1469 1470 1472 1473 1474 1475 1476
1488 1493 1503 1509 1509 1511 1501 1486 1481 1483 1496 1491 1488 1485 1482 1477 1481 1477 1472 1470 1467 1464 1462 1460 1458 1457 1455 1454 1454 1454 1454 1455 1456 1457 1459 1461 1463 1464 1466 1468 1469 1471 1472 1473
1498 1501 1505 1509 1510 1504 1495 1487 1484 1499 1503 1493 1489 1486 1484 1482 1482 1478 1472 1469 1466 1463 1461 1458 1456 1454 1453 1452 1451 1450 1450 1451 1452 1453 1455 1456 1458 1460 1462 1464 1465 1467 1468 1469
1503 1506 1508 1511 1512 1509 1494 1490 1496 1499 1494 1492 1489 1486 1484 1481 1478 1475 1471 1468 1464 1461 1458 1456 1453 1451 1450 1449 1448 1447 1446 1447 1448 1448 1449 1451 1453 1455 1457 1459 1460 1462 1464 1465
1502 1502 1503 1505 1506 1500 1496 1495 1495 1494 1492 1490 1488 1485 1483 1479 1476 1473 1469 1466 1463 1460 1457 1454 1451 1448 1447 1445 1445 1443 1442 1443 1443 1443 1444 1445 1447 1450 1451 1453 1455 1457 1459 1460
1500 1498 1499 1501 1498 1497 1496 1495 1494 1493 1491 1489 1486 1484 1481 1478 1474 1471 1468 1464 1461 1457 1454 1451 1448 1445 1442 1441 1440 1439 1438 1438 1438 1437 1438 1439 1441 1443 1445 1448 1450 1451 1453 1454
1500 1498 1499 1500 1497 1495 1494 1494 1493 1491 1489 1487 1484 1482 1479 1476 1472 1469 1465 1462 1458 1455 1452 1448 1445 1442 1439 1436 1435 1434 1433 1432 1431 1431 1432 1433 1435 1436 1439 1441 1443 1445 1447 1449
1496 1496 1498 1498 1494 1495 1493 1492 1490 1488 1486 1484 1481 1478 1475 1473 1470 1466 1462 1459 1456 1452 1448 1445 1441 1437 1434 1431 1429 1428 1427 1426 1425 1425 1426 1427 1428 1430 1432 1434 1436 1438 1441 1443